Location: *
(43.0409°N, 0.1694°E)
Time: 13:25:48
(UTC+00:00)

USA 215 - Pass Details

Date: 03 October 2023
Orbit: 1098 x 1109 km, 123.0° (Epoch: 17 November)

Event Time Altitude Azimuth Distance (km) Brightness Sun altitude
Rises 05:17:35 0° 160° (SSE) 3,895 6.4 -8.3°
Reaches altitude 10° 05:20:20 10° 170° (S) 2,941 5.6 -7.8°
Maximum altitude 05:26:06 34° 232° (SW) 1,736 3.9 -6.7°
Drops below altitude 10° 05:31:54 10° 296° (WNW) 2,958 5.0 -5.7°
Sets 05:34:41 0° 305° (NW) 3,920 5.6 -5.2°
